Weather in Cayucos

United States     35°25′39″N   120°52′22″W
temp.,
°C
wind,
m/s
gust,
m/s
humid.,
%
clouds,
%
prec.,
mm/h
press.,
hPa
HPBL,
m
12 may, wed
wed1223:00+10ssw11821 0.0 101417
02:00+11ssw11790 0.0 101412
05:00+9ssw11897 0.0 101514
08:00+14ssw11631 0.0 1016145
11:00+22sw32403 0.0 1015497
14:00+23sw44383 0.0 1015437
17:00+19sw44473 0.0 1015339
20:00+11sw22791 0.0 101624
13 may, thu
thu1323:00+10sw11780 0.0 101712
02:00+9ssw11832 0.0 101714
05:00+8sw11865 0.0 101712
08:00+15wsw00572 0.0 1017150
11:00+23wsw21326 0.0 1016571
14:00+24sw54357 0.0 1015516
17:00+20sw45395 0.0 1014353
20:00+12sw22771 0.0 101531
14 may, fri
fri1423:00+9sw11822 0.0 101618
02:00+8sw118713 0.0 101521
05:00+7ssw11938 0.0 101526
08:00+12sw11697 0.0 1015176
11:00+20sw32413 0.0 1014503
14:00+21sw54413 0.0 1013482
17:00+18sw45506 0.0 1012358
20:00+10sw339039 0.0 1013172
15 may, sat
sat1523:00+8ssw229448 0.0 1014145
02:00+8ssw239459 0.0 1014169
05:00+8ssw229271 0.0 1014235
08:00+10sw238265 0.0 1015438
11:00+15sw665810 0.0 1014673
14:00+16sw78569 0.0 1013665
17:00+13sw797038 0.0 1012658
20:00+10sw489279 0.1 1013557
16 may, sun
sun1623:00+10ssw359582 0.1 1014297
02:00+9sw129582 0.1 1014172
05:00+9sw119589 0.1 101463
08:00+12sw127838 0.0 1015485
11:00+17sw435613 0.0 1014829
14:00+18sw55535 0.0 1015677
17:00+15sw67635 0.0 1014547
20:00+10sw468741 0.0 1016298